Location: Tom
(33.0437°N, 96.9452°W)
Time: 00:04:33
(UTC-05:00)

Envisat - Pass Details

Date: 25 January 2019
Orbit: 764 x 766 km, 98.2° (Epoch: 20 April)

Event Time Altitude Azimuth Distance (km) Brightness Sun altitude
Rises 18:53:00 0° 153° (SSE) 3,214 6.1 -12.7°
Reaches altitude 10° 18:55:20 10° 148° (SSE) 2,291 5.3 -13.2°
Maximum altitude 19:00:13 51° 74° (ENE) 959 3.1 -14.2°
Drops below altitude 10° 19:05:07 10° 359° (N) 2,305 5.4 -15.2°
Sets 19:07:28 0° 355° (N) 3,235 6.2 -15.7°
